This demonstration page uses our WeatherBlox Daily Observations layout. Learn more.

40.92945, -100.16068

Hourly Observations for March 1, 2017

Temp ( °F °C ) Dew Point ( °F °C ) Humidity (%) Winds ( mph kmh ) Pressure ( in mb ) Visibility ( mi km ) Precip ( " mm )
12:15 am 00:15 Clear 29 -1.8 19 -7 68 68 WNW 12 19 30 1016 10 16.0934 0 0
12:35 am 00:35 Clear 28 -2 19 -7.3 67 67 WNW 12 19 30 1016 10 16.0934 0 0
12:55 am 00:55 Clear 27 -2.8 19 -7.4 71 71 WNW 12 19 30.03 1017 10 16.0934 0 0
1:15 am 01:15 Clear 28 -2.5 18 -7.6 68 68 WNW 12 19 30.03 1017 10 16.0934 0 0
1:35 am 01:35 Clear 28 -2.5 18 -8 66 66 WNW 10 17 30.03 1017 10 16.0934 0 0
1:55 am 01:55 Clear 28 -2.5 17 -8.2 65 65 WNW 9 15 30.03 1017 10 16.0934 0 0
2:15 am 02:15 Clear 27 -2.6 17 -8.1 66 66 WNW 9 15 30.03 1017 10 16.0934 0 0
2:35 am 02:35 Clear 26 -3.2 18 -8 70 70 WNW 9 15 30.06 1018 10 16.0934 0 0
2:55 am 02:55 Clear 24 -4.2 17 -8.3 73 73 NW 8 13 30.06 1018 10 16.0934 0 0
3:15 am 03:15 Clear 24 -4.5 17 -8.5 74 74 NW 10 17 30.09 1019 10 16.0934 0 0
3:35 am 03:35 Clear 23 -4.9 17 -8.4 77 77 NW 10 17 30.09 1019 10 16.0934 0 0
3:55 am 03:55 Clear 23 -4.8 17 -8.3 77 77 NW 10 17 30.09 1019 10 16.0934 0 0
4:15 am 04:15 Clear 23 -5 17 -8.5 77 77 NW 9 15 30.12 1020 10 16.0934 0 0
4:35 am 04:35 Clear 24 -4.6 17 -8.2 76 76 WNW 12 19 30.12 1020 10 16.0934 0 0
4:55 am 04:55 Clear 24 -4.4 17 -8.2 75 75 WNW 10 17 30.12 1020 10 16.0934 0 0
5:15 am 05:15 Clear 23 -4.8 17 -8.3 77 77 WNW 9 15 30.15 1021 10 16.0934 0 0
5:35 am 05:35 Clear 23 -4.8 17 -8.3 77 77 NW 7 11 30.15 1021 10 16.0934 0 0
5:55 am 05:55 Clear 23 -4.8 17 -8.3 77 77 WNW 10 17 30.15 1021 10 16.0934 0 0
6:15 am 06:15 Clear 24 -4.5 17 -8.1 76 76 WNW 13 20 30.18 1022 10 16.0934 0 0
6:35 am 06:35 Clear 24 -4.3 18 -8 76 76 WNW 13 20 30.18 1022 10 16.0934 0 0
6:55 am 06:55 Clear 24 -4.4 17 -8.2 75 75 WNW 8 13 30.18 1022 10 16.0934 0 0
7:15 am 07:15 Sunny 23 -5 17 -8.4 77 77 WNW 9 15 30.21 1023 10 16.0934 0 0
7:35 am 07:35 Sunny 24 -4.4 17 -8.3 75 75 WNW 9 15 30.18 1022 10 16.0934 0 0
7:55 am 07:55 Sunny 26 -3.5 18 -7.9 72 72 WNW 13 20 30.18 1022 10 16.0934 0 0
8:15 am 08:15 Sunny 29 -1.7 18 -7.8 63 63 WNW 21 33 30.18 1022 10 16.0934 0 0
8:35 am 08:35 Sunny 30 -1 18 -7.9 60 60 WNW 24 39 30.18 1022 10 16.0934 0 0
8:55 am 08:55 Sunny 31 -0.3 18 -7.6 58 58 NW 18 30 30.21 1023 10 16.0934 0 0
9:15 am 09:15 Sunny 32 0.2 18 -7.6 56 56 NW 20 31 30.21 1023 10 16.0934 0 0
9:35 am 09:35 Sunny 35 1.6 19 -7.1 53 53 NW 18 30 30.18 1022 10 16.0934 0 0
9:55 am 09:55 Sunny 37 2.6 19 -7.2 49 49 NW 25 41 30.21 1023 10 16.0934 0 0
10:15 am 10:15 Sunny 38 3.1 19 -7.3 47 47 NW 26 43 30.24 1024 10 16.0934 0 0
10:35 am 10:35 Sunny 38 3.6 18 -7.6 44 44 NW 20 31 30.24 1024 10 16.0934 0 0
10:55 am 10:55 Sunny 40 4.6 19 -7.5 41 41 WNW 24 39 30.24 1024 10 16.0934 0 0
11:15 am 11:15 Sunny 41 5.1 17 -8.1 38 38 NW 24 39 30.24 1024 10 16.0934 0 0
11:35 am 11:35 Sunny 42 5.5 16 -8.9 35 35 NW 22 35 30.21 1023 10 16.0934 0 0
11:55 am 11:55 Partly Cloudy 42 5.8 16 -8.8 35 35 NW 22 35 30.21 1023 10 16.0934 0 0
12:15 pm 12:15 Partly Cloudy 43 6.2 13 -10.8 29 29 NW 23 37 30.21 1023 10 16.0934 0 0
12:35 pm 12:35 Mostly Cloudy 43 5.9 12 -11 29 29 WNW 20 31 30.21 1023 10 16.0934 0 0
12:55 pm 12:55 Mostly Cloudy 45 7 11 -11.4 26 26 NW 22 35 30.21 1023 10 16.0934 0 0
1:15 pm 13:15 Partly Cloudy 45 7.1 9 -12.6 23 23 NW 26 43 30.21 1023 10 16.0934 0 0
1:35 pm 13:35 Partly Cloudy 45 7.1 10 -12.5 24 24 WNW 23 37 30.21 1023 10 16.0934 0 0
1:55 pm 13:55 Partly Cloudy 45 7.3 11 -11.7 25 25 NW 23 37 30.21 1023 10 16.0934 0 0
2:15 pm 14:15 Sunny 44 6.9 10 -12.1 25 25 NW 21 33 30.21 1023 10 16.0934 0 0
2:35 pm 14:35 Sunny 46 7.5 10 -12.3 23 23 NW 31 50 30.21 1023 10 16.0934 0 0
2:55 pm 14:55 Sunny 46 7.6 8 -13.3 21 21 NW 24 39 30.21 1023 10 16.0934 0 0
3:15 pm 15:15 Sunny 46 7.7 9 -12.8 22 22 WNW 25 41 30.21 1023 10 16.0934 0 0
3:35 pm 15:35 Sunny 46 7.7 9 -13 22 22 NW 23 37 30.21 1023 10 16.0934 0 0
3:55 pm 15:55 Sunny 46 7.6 9 -12.9 22 22 NW 20 31 30.21 1023 10 16.0934 0 0
4:15 pm 16:15 Sunny 46 7.5 8 -13.5 21 21 WNW 21 33 30.21 1023 10 16.0934 0 0
4:35 pm 16:35 Sunny 46 7.6 8 -13.2 21 21 WNW 18 30 30.21 1023 10 16.0934 0 0
4:55 pm 16:55 Sunny 46 7.6 8 -13.4 21 21 WNW 16 26 30.21 1023 10 16.0934 0 0
5:15 pm 17:15 Sunny 46 7.5 9 -12.9 22 22 WNW 22 35 30.21 1023 10 16.0934 0 0
5:35 pm 17:35 Sunny 44 6.9 8 -13.2 23 23 NW 16 26 30.21 1023 10 16.0934 0 0
5:55 pm 17:55 Cloudy 41 4.8 22 -5.4 48 48 NW 12 19 29.77 1008 10 16.0934 0 0
6:15 pm 18:15 Sunny 40 4.7 10 -12.4 28 28 NW 9 15 30.24 1024 10 16.0934 0 0
6:35 pm 18:35 Clear 36 2.3 10 -12 34 34 NW 8 13 30.3 1026 10 16.0934 0 0
6:55 pm 18:55 Clear 34 0.9 10 -12.3 37 37 WNW 6 9 30.3 1026 10 16.0934 0 0
7:15 pm 19:15 Clear 30 -1 12 -10.9 47 47 WNW 5 7 30.33 1027 10 16.0934 0 0
7:35 pm 19:35 Clear 31 -0.5 13 -10.5 47 47 WNW 5 7 30.3 1026 10 16.0934 0 0
7:55 pm 19:55 Clear 29 -1.4 13 -10.6 50 50 W 6 9 30.33 1027 10 16.0934 0 0
8:15 pm 20:15 Clear 29 -1.5 13 -10.6 50 50 W 6 9 30.33 1027 10 16.0934 0 0
8:35 pm 20:35 Clear 31 -0.6 13 -10.6 47 47 W 5 7 30.33 1027 10 16.0934 0 0
8:55 pm 20:55 Clear 26 -3.2 14 -10 60 60 WSW 3 6 30.33 1027 10 16.0934 0 0
9:15 pm 21:15 Clear 26 -3.3 15 -9.6 62 62 SW 3 6 30.33 1027 10 16.0934 0 0
9:35 pm 21:35 Clear 25 -3.9 14 -9.8 64 64 SW 5 7 30.39 1029 10 16.0934 0 0
9:55 pm 21:55 Clear 26 -3.1 14 -9.9 60 60 Calm 30.36 1028 10 16.0934 0 0
10:15 pm 22:15 Clear 28 -2.4 13 -10.5 54 54 SW 6 9 30.36 1028 10 16.0934 0 0
10:35 pm 22:35 Clear 27 -2.6 16 -9 62 62 W 7 11 30.36 1028 10 16.0934 0 0
10:55 pm 22:55 Clear 27 -2.8 16 -9.1 62 62 WSW 6 9 30.36 1028 10 16.0934 0 0
11:15 pm 23:15 Clear 28 -2.5 18 -7.8 67 67 W 6 9 30.36 1028 10 16.0934 0 0
11:35 pm 23:35 Clear 28 -2.3 18 -7.6 67 67 W 8 13 30.36 1028 10 16.0934 0 0
11:55 pm 23:55 Clear 27 -2.8 19 -7.3 71 71 W 8 13 30.36 1028 10 16.0934 0 0

Powered by AerisWeather